Theta_e
346 342 330 323 307 304 298 304 311 314 316 321 326 322 320 321 317 309 332 337 345 347 350 353 357 356 355 355 354 354 354 353 352 351 351 351 350 351 351 351 352 352 351 351 350 349 347 346 344
341 337 325 314 303 297 300 306 310 314 320 323 326 325 324 319 330 327 329 342 345 349 349 352 357 357 355 355 354 354 353 353 352 351 351 351 350 350 351 351 351 350 349 349 349 347 345 344 344
335 330 316 308 301 298 300 307 314 317 323 322 322 325 324 322 331 330 336 344 348 347 348 350 357 357 355 354 354 354 353 353 352 351 351 352 352 352 352 352 351 349 347 347 347 346 343 343 343
324 319 316 305 302 306 308 312 316 316 318 322 322 317 325 333 331 334 341 345 345 343 343 351 357 357 355 354 354 353 353 352 351 351 351 352 352 352 352 352 352 349 345 346 347 348 348 346 347
318 315 307 304 304 310 313 314 316 315 318 320 322 317 319 330 337 339 340 342 341 342 342 351 358 357 356 354 354 353 353 352 352 352 352 352 352 353 353 353 352 351 348 347 349 349 350 350 349
306 310 302 300 309 312 312 317 317 317 319 320 317 317 318 333 334 336 339 338 340 341 344 348 355 357 357 356 356 355 355 353 352 353 352 352 353 353 353 354 355 353 348 347 348 349 349 349 349
302 303 301 303 305 309 312 315 315 317 319 320 322 316 320 329 334 338 336 336 340 341 345 347 347 352 355 357 357 356 355 354 354 354 352 352 352 354 352 353 354 354 350 347 347 348 349 349 345
305 306 304 306 305 305 313 313 315 317 318 326 326 315 315 324 335 337 335 337 340 342 344 343 343 347 345 349 356 356 355 355 354 354 353 350 349 352 354 352 351 353 351 349 349 347 344 342 341
305 299 299 305 307 308 314 310 314 320 321 323 325 323 326 330 334 337 337 338 338 341 340 342 343 342 345 347 350 355 353 354 355 352 349 345 336 337 341 344 350 351 350 349 342 339 337 331 330
301 295 299 310 312 311 313 311 314 316 319 317 323 327 330 332 336 335 335 333 334 336 338 339 342 342 344 348 345 347 347 347 342 336 332 331 334 337 342 344 347 351 339 336 332 331 329 324 316
300 298 303 310 314 314 313 312 314 313 310 318 320 324 327 328 330 334 335 335 334 334 335 337 338 341 343 342 343 345 343 340 335 331 331 331 335 330 325 323 322 319 326 319 319 318 316 314 314
297 304 306 310 316 313 313 314 313 311 313 323 326 328 327 325 324 326 327 326 330 330 335 335 337 338 340 340 343 342 340 336 331 330 330 327 330 330 324 321 318 318 317 317 316 316 315 314 314
300 302 308 312 314 315 315 313 312 312 319 327 328 328 325 324 326 329 333 333 333 335 337 338 338 336 338 339 341 340 337 334 330 330 330 330 328 329 325 319 318 318 317 318 317 314 314 313 313
304 306 304 310 311 312 312 312 312 313 322 326 326 325 325 327 329 330 331 329 331 332 333 335 340 341 340 339 339 339 335 332 330 330 330 331 328 329 325 319 319 318 317 316 314 314 313 311 311
304 302 305 307 310 311 314 311 311 314 323 323 324 323 325 327 329 327 330 330 329 332 334 332 336 338 340 340 338 335 335 335 331 331 330 331 330 329 326 318 318 318 316 316 315 313 312 311 312
304 302 299 303 312 311 308 300 307 314 321 319 322 323 324 323 327 331 331 332 327 330 329 330 332 336 337 339 338 338 337 333 332 331 331 333 334 330 324 318 317 319 317 316 314 312 311 310 310
299 296 299 305 309 313 308 300 307 313 318 318 319 321 322 323 326 332 335 334 326 331 331 328 327 327 335 335 335 334 334 332 332 332 331 332 332 330 324 319 319 320 317 314 314 312 310 309 308
296 296 299 300 304 305 301 305 310 314 318 317 317 319 322 323 326 332 335 338 327 326 330 332 334 335 335 334 333 332 331 331 330 329 327 329 330 329 321 321 320 320 315 314 312 309 309 308 307
301 300 300 303 305 306 304 307 310 313 315 315 316 317 319 322 327 329 334 331 329 330 328 332 328 331 333 333 331 329 327 329 328 327 328 327 328 328 324 321 319 319 316 312 310 309 306 305 306
303 298 297 300 309 307 304 304 308 311 311 314 316 316 319 322 325 326 323 325 326 327 329 325 324 321 326 333 333 332 331 329 328 328 327 326 326 326 324 320 318 314 313 310 310 310 305 308 306
299 299 298 299 304 304 303 301 303 309 311 315 319 318 320 324 323 323 324 322 321 323 325 325 323 322 328 332 332 330 328 327 323 321 319 318 319 318 317 318 316 314 310 311 310 311 310 308 307
299 305 304 303 298 295 302 291 300 304 306 308 308 318 320 323 323 324 324 319 319 321 323 325 325 324 326 323 328 327 323 319 317 318 317 317 317 316 316 314 313 310 313 313 312 314 311 308 304
303 306 305 303 298 298 299 297 298 301 301 303 314 320 321 321 320 323 325 325 326 324 323 326 328 327 324 322 324 326 320 319 318 316 314 314 314 316 316 313 315 312 312 313 313 312 308 308 306
308 302 300 299 296 292 296 295 294 298 300 304 313 317 321 322 323 323 324 324 322 323 324 324 324 324 322 325 325 319 316 314 312 312 311 311 311 315 315 315 313 311 309 312 311 309 307 309 309
303 297 290 290 291 290 297 296 294 303 306 309 311 313 314 317 319 319 318 319 321 321 320 321 321 322 321 320 318 316 314 313 312 311 309 308 310 312 309 308 308 308 308 311 309 311 310 307 306
301 297 291 286 288 291 298 291 296 306 308 310 314 313 315 315 315 317 318 317 316 318 317 317 317 315 315 315 314 315 313 311 309 308 310 307 306 306 306 306 305 306 307 308 306 303 306 308 309
302 299 300 293 292 290 292 296 304 307 308 309 310 311 312 313 314 315 316 316 316 315 313 313 313 313 313 312 311 309 309 307 307 307 305 305 304 307 306 305 303 304 306 307 307 308 308 309 306
304 306 295 294 286 285 291 292 292 301 303 307 307 308 310 311 312 313 313 314 314 314 313 312 312 310 309 309 309 308 307 307 306 305 304 303 303 303 303 303 303 307 306 306 308 308 308 307 307
301 300 299 295 292 287 287 291 301 302 304 306 306 308 308 308 310 312 313 313 312 313 311 310 310 309 309 308 307 306 305 305 304 302 302 302 301 302 302 303 303 303 303 302 301 303 306 306 306
304 301 297 291 290 292 291 293 305 306 306 307 309 310 308 308 309 311 312 312 312 311 311 309 309 309 308 307 305 304 303 302 301 301 301 302 301 302 302 303 303 303 302 301 303 306 307 308 307
Wind_Speed
9 7 1 3 5 6 4 5 1 4 3 2 8 4 7 2 4 4 2 7 14 13 9 12 15 14 13 12 11 10 9 8 7 6 5 4 4 4 4 3 3 3 3 4 5 6 7 8 9
6 4 2 3 7 5 5 5 3 3 4 7 7 5 3 2 3 6 7 7 12 12 8 8 16 14 14 12 11 10 9 8 6 5 5 4 3 3 2 2 1 1 1 1 3 4 5 6 9
5 3 4 6 4 1 3 2 5 2 4 1 3 5 3 3 3 7 6 13 11 10 7 8 16 14 14 13 12 10 9 8 7 6 5 4 4 5 5 4 3 3 2 2 2 2 3 5 7
5 2 5 7 2 4 2 3 4 4 4 3 3 5 3 2 10 7 14 13 11 6 5 10 15 14 15 14 12 11 9 8 7 5 5 6 7 7 7 7 6 5 2 3 4 4 4 5 6
3 4 6 4 3 4 2 7 6 7 4 1 2 2 4 1 9 14 15 14 13 9 7 8 16 16 15 14 12 10 9 7 6 6 7 6 6 7 7 7 6 5 2 4 6 6 7 7 8
5 4 5 1 2 4 5 8 5 4 4 3 5 4 2 4 13 11 12 12 10 11 9 7 15 15 13 12 11 10 8 7 8 8 7 6 7 7 7 7 7 6 5 7 9 10 9 11 12
6 5 4 4 3 5 1 6 4 6 7 3 6 4 1 4 6 10 9 7 8 9 9 8 7 11 13 10 9 8 8 8 9 6 6 5 7 8 7 7 8 8 6 7 8 8 8 10 12
6 5 6 5 4 5 2 3 4 6 6 5 4 6 6 7 11 10 6 5 5 6 8 7 7 6 6 7 13 11 10 9 8 9 8 4 5 8 7 8 7 10 6 6 7 8 9 9 9
4 5 4 7 8 7 6 7 3 2 6 4 7 5 6 12 13 8 6 5 4 6 5 5 5 4 6 7 8 11 13 11 10 8 6 4 4 6 7 7 8 9 7 5 9 9 9 10 11
5 3 10 8 8 9 7 6 8 5 7 2 2 3 10 14 15 12 9 11 11 11 8 6 5 6 5 6 5 5 5 4 4 1 3 3 4 5 7 7 11 4 6 8 7 8 9 9 4
5 7 7 7 9 9 8 3 5 11 4 8 15 11 12 15 12 12 12 9 12 2 2 7 7 7 8 7 4 2 3 3 1 3 3 2 3 2 1 1 3 3 5 2 3 5 4 6 4
2 9 6 4 8 7 9 7 5 6 10 10 15 18 13 10 11 12 6 5 8 4 7 9 9 6 6 5 3 3 2 2 2 2 1 3 2 2 2 2 1 3 2 2 2 3 3 4 5
6 6 7 5 11 11 5 4 6 8 6 12 14 15 12 9 6 6 8 8 12 17 19 18 5 6 7 6 3 3 4 4 2 3 4 4 4 3 1 1 1 2 3 2 3 3 3 3 5
3 7 3 5 6 4 6 2 3 5 8 13 14 12 8 8 8 6 9 10 10 9 11 10 14 10 11 6 5 4 2 2 2 4 4 6 4 3 3 4 4 4 2 2 2 1 1 2 3
2 5 6 4 3 3 5 5 7 2 14 15 11 6 6 4 8 10 9 13 5 4 4 11 10 14 14 16 3 2 3 2 4 5 5 6 5 4 4 4 4 4 4 3 2 3 1 1 2
6 7 6 4 5 3 5 8 4 8 14 8 6 6 5 6 8 10 10 11 9 11 4 9 8 17 25 8 4 4 5 5 6 5 4 6 5 5 4 4 4 3 3 3 2 1 2 2 2
8 3 4 2 5 6 5 7 10 1 9 6 8 5 4 4 8 10 10 12 7 10 3 2 9 18 23 6 5 4 4 4 3 4 5 6 5 4 4 3 4 5 3 0 1 1 1 1 3
8 3 3 4 3 9 4 4 9 7 6 2 6 2 5 8 9 7 8 6 8 7 7 5 7 10 5 4 4 3 3 2 3 4 4 5 5 4 3 5 5 3 2 2 0 1 1 1 2
4 4 2 1 5 11 5 8 10 8 6 4 5 2 7 8 3 10 8 2 7 5 6 8 7 9 5 3 1 3 2 4 3 3 6 6 6 4 5 4 5 3 4 1 2 0 1 2 1
3 3 5 6 11 10 2 6 3 5 2 2 6 1 6 6 7 6 4 1 8 8 6 4 2 6 6 3 2 1 4 3 2 1 3 3 4 4 3 5 4 2 2 3 2 1 2 2 1
2 5 1 6 4 3 5 11 11 7 5 5 6 8 9 10 8 4 2 7 5 4 4 7 7 8 7 5 3 1 2 3 4 4 4 5 6 6 5 3 2 2 2 2 1 3 2 1 4
6 7 3 4 6 3 3 1 7 10 11 8 10 7 8 8 5 5 6 6 4 4 5 7 3 3 3 6 7 7 3 2 3 4 4 5 5 5 4 4 4 2 1 3 3 2 3 2 5
4 1 14 5 7 7 9 7 8 7 11 8 12 12 8 6 5 6 6 6 5 5 6 7 7 8 8 9 9 6 4 4 3 3 4 4 5 5 5 3 2 2 2 4 5 4 3 4 3
2 4 9 5 3 7 6 5 6 6 5 3 4 8 6 4 6 4 4 7 6 6 7 8 7 5 7 8 8 6 7 4 3 3 4 4 3 4 5 5 5 5 4 4 4 4 4 4 4
9 9 5 7 7 3 6 8 4 7 6 1 3 5 2 5 6 6 7 8 9 10 11 9 9 10 8 6 6 6 6 6 6 6 5 6 4 3 6 6 7 5 6 4 4 4 5 4 4
4 6 6 2 2 2 5 4 3 6 8 7 4 3 4 5 4 5 7 7 7 7 7 6 6 7 7 8 9 8 8 5 4 5 4 4 3 4 5 5 6 6 6 5 5 4 4 5 5
1 7 3 7 4 4 1 4 5 7 7 6 7 8 7 5 4 5 6 5 6 7 6 7 7 8 8 7 8 7 6 7 5 6 4 4 5 5 6 6 6 6 6 5 5 4 5 4 4
8 4 4 4 3 1 4 4 4 4 4 5 5 3 6 7 8 6 6 6 6 6 5 7 6 7 6 6 6 5 6 6 6 5 6 6 5 5 5 6 5 6 6 6 5 4 4 4 4
6 4 5 5 4 6 3 4 1 5 3 5 5 4 5 5 5 6 6 5 6 5 5 6 6 6 7 6 5 6 5 5 4 5 5 5 5 5 5 5 5 5 5 6 5 4 4 5 5
0 4 4 6 2 3 3 4 3 2 3 6 6 3 3 5 3 4 4 3 3 4 4 5 6 7 5 4 4 4 3 4 5 5 6 5 5 5 5 5 5 5 5 6 6 5 5 6 6
Wind_Direction
139 147 142 54 49 60 346 315 316 125 166 204 138 147 169 159 161 214 69 139 127 139 158 166 166 160 157 153 152 147 143 142 136 126 111 95 79 71 62 60 51 47 52 56 39 34 29 25 24
155 139 25 77 72 45 299 293 245 202 175 145 136 147 138 115 98 100 110 136 142 143 158 167 169 163 165 163 165 160 157 156 150 147 143 128 114 94 58 5 335 308 343 47 46 17 19 17 12
183 199 84 87 94 188 231 330 268 58 139 103 62 63 74 161 87 151 139 139 135 150 161 178 170 168 171 172 170 168 170 169 173 167 171 166 174 185 185 196 241 274 303 339 6 1 355 3 2
209 19 43 79 339 263 225 89 240 107 357 20 110 75 38 196 152 157 136 140 139 142 158 191 171 176 178 179 176 177 183 182 187 189 205 208 206 213 214 216 208 218 256 304 326 335 340 351 354
33 62 45 42 295 216 273 177 211 153 164 161 109 102 112 44 103 134 142 151 155 162 177 192 181 185 185 182 182 185 194 196 199 211 227 233 243 246 246 243 254 269 304 343 339 338 347 7 359
35 83 52 268 266 306 308 159 180 159 168 144 88 86 128 109 123 155 154 160 162 173 181 188 190 192 189 184 188 195 202 200 210 220 234 259 271 269 261 268 275 286 322 349 337 336 351 1 359
113 88 164 256 260 324 125 120 218 169 150 165 159 107 87 141 146 150 158 153 164 175 185 187 191 197 190 188 199 206 216 221 226 241 244 245 265 269 266 269 278 293 316 333 315 333 359 18 360
113 96 149 233 208 258 218 182 194 190 176 102 147 173 189 174 159 144 142 137 149 177 192 196 191 188 171 196 204 205 214 223 231 235 246 247 284 292 300 289 288 285 299 316 336 30 36 30 19
75 80 232 214 160 222 191 181 170 211 116 207 187 167 171 131 138 124 128 138 170 202 208 192 189 191 194 202 209 208 212 219 233 240 254 291 308 304 283 265 259 264 303 8 50 36 30 28 20
117 143 222 210 170 211 193 161 179 123 142 280 101 68 131 133 146 158 177 192 200 203 197 192 198 197 208 216 218 206 224 217 215 183 309 302 287 297 291 287 254 252 64 75 46 35 28 33 24
179 202 206 223 193 194 176 171 198 130 205 207 170 173 171 154 159 166 197 194 206 219 212 202 192 203 205 221 197 199 214 230 226 92 277 329 310 296 20 40 64 93 81 67 36 18 30 29 29
278 246 200 170 184 161 187 125 174 176 216 185 173 171 168 177 162 181 152 155 179 175 209 186 202 209 200 230 196 225 243 237 273 116 244 190 220 334 352 33 76 138 155 106 73 45 25 21 12
191 284 138 182 165 199 113 154 171 198 197 164 176 164 171 171 173 101 116 35 24 21 21 3 23 346 292 233 182 201 229 222 243 238 204 194 201 216 175 265 289 222 183 136 52 44 19 24 5
263 16 95 159 167 136 107 292 167 166 180 176 179 165 150 170 156 97 76 54 34 48 35 20 328 26 281 268 213 208 233 263 255 264 252 230 201 201 196 225 222 209 154 163 133 139 104 18 351
285 177 29 36 111 90 141 297 224 163 181 180 184 140 180 113 71 59 64 59 57 56 18 0 352 332 289 238 180 218 259 256 257 257 251 258 234 241 219 225 231 222 209 175 160 152 143 17 329
38 53 46 285 161 175 95 281 39 184 171 174 180 163 188 91 79 77 84 92 93 76 77 129 75 269 275 245 201 202 188 213 238 243 262 256 258 231 233 245 249 243 226 165 171 119 12 340 347
13 352 21 51 219 117 38 326 340 147 129 147 214 167 150 82 66 67 107 111 96 101 198 148 212 236 247 201 173 185 206 208 255 245 245 256 253 245 239 250 264 256 266 250 143 70 105 296 326
285 0 352 339 39 66 96 5 5 49 102 103 351 62 71 37 35 67 100 111 154 199 174 251 218 218 233 190 97 75 20 331 248 240 251 287 283 233 227 260 262 245 283 305 306 181 205 239 279
223 151 119 248 359 71 37 33 23 41 50 64 273 326 73 60 64 43 68 115 258 190 240 237 4 341 351 348 203 41 247 249 282 283 305 291 283 268 282 265 258 282 250 216 209 100 321 291 111
103 52 357 17 73 86 6 33 314 60 86 205 251 182 80 66 51 31 81 202 243 287 305 231 228 313 321 318 359 249 185 194 225 293 273 296 293 307 282 298 312 308 336 329 297 165 90 302 47
111 100 188 124 130 81 68 23 359 9 7 346 342 92 140 148 136 145 169 260 299 288 337 314 331 303 324 351 347 320 349 351 12 15 8 7 30 40 43 38 56 110 163 253 243 257 218 298 268
52 327 324 156 117 150 32 202 10 333 43 30 2 67 137 130 140 180 194 244 232 282 323 262 296 320 269 309 11 13 340 41 37 353 334 340 4 19 29 55 67 37 309 323 307 290 251 157 255
129 114 90 57 86 91 3 74 312 346 15 2 4 19 107 124 142 192 237 262 344 322 305 335 337 344 335 340 10 335 8 33 356 328 343 355 13 22 38 53 346 282 256 246 230 232 237 235 252
78 83 50 51 75 42 314 110 328 3 314 346 347 31 47 133 195 216 343 352 320 317 343 346 350 318 346 359 24 57 65 53 27 358 12 2 354 13 7 354 339 331 313 291 300 295 274 259 245
61 56 4 15 20 197 319 63 340 345 1 61 60 57 18 16 10 16 1 357 343 352 344 338 346 360 39 60 58 62 68 55 44 25 20 16 357 357 355 354 355 339 319 337 305 290 282 274 258
33 103 140 147 155 248 355 48 310 354 21 40 43 100 45 39 25 11 8 344 356 11 11 28 29 47 38 42 41 40 41 45 39 30 15 3 2 341 343 349 342 329 333 328 318 303 278 262 251
32 46 188 102 10 64 298 91 20 7 38 36 41 43 22 24 32 32 15 24 52 47 31 38 48 50 49 55 54 45 38 38 24 16 12 358 347 334 347 340 327 321 322 315 303 288 291 284 288
96 151 33 12 113 110 332 106 184 262 316 329 19 356 28 22 41 47 41 36 39 39 26 59 68 77 69 66 55 49 33 23 15 8 360 348 332 332 328 319 316 332 322 315 301 298 301 305 285
14 26 58 112 108 146 166 270 156 200 285 302 269 325 7 45 49 44 41 34 45 35 49 71 67 76 61 48 41 42 24 15 10 8 353 343 321 327 326 328 333 318 327 335 326 327 307 312 303
56 148 124 114 287 52 126 271 205 200 292 288 276 319 53 73 64 48 19 36 47 55 58 70 54 56 52 45 46 28 26 5 7 358 349 332 341 340 339 340 326 339 348 332 311 316 307 294 290